Weather History for KPPQ - August, 2013

Change the Weather History Date:

Thursday, August 29, 2013

  Actual Average (KUIN) Record (KUIN)
Temperature  
Mean Temperature 82 °F 73 °F  
Max Temperature 95 °F 83 °F 103 °F (1984)
Min Temperature 69 °F 62 °F 43 °F (1986)
Degree Days  
Heating Degree Days 0 0  
Month to date heating degree days 0  
Since 1 June heating degree days 16  
Since 1 July heating degree days 0  
Cooling Degree Days 16 8  
Month to date cooling degree days 282  
Year to date cooling degree days 938  
Since 1 June cooling degree days 852  
Growing Degree Days 32 (Base 50)    
Moisture  
Dew Point 70 °F    
Average Humidity 66    
Maximum Humidity 92    
Minimum Humidity 43    
Precipitation  
Precipitation 0.00 in 0.12 in 2.99 in (1955)
Month to date precipitation 3.40  
Year to date precipitation 25.52  
Sea Level Pressure  
Sea Level Pressure 30.02 in    
Wind  
Wind Speed 3 mph (NNE)    
Max Wind Speed 8 mph    
Max Gust Speed -    
Visibility 9 miles    
Events      
T = Trace of Precipitation, MM = Missing Value Source: NWS Daily Summary

Daily Weather History Graph

Daily Weather History Graph

Search for Another Location

Airport or City:

Trip Planner

Search our weather history database for the weather conditions in past years. The results will help you decide how hot, cold, wet, or windy it might be!

Date:

Astronomy

Aug. 29, 2013 Rise Set
Actual Time 6:28 AM CDT 7:38 PM CDT
Civil Twilight 6:00 AM CDT 8:06 PM CDT
Nautical Twilight 5:27 AM CDT 8:39 PM CDT
Astronomical Twilight 4:53 AM CDT 9:13 PM CDT
Moon 12:21 AM CDT (8/29) 3:06 PM CDT (8/29)
Length of Visible Light 14h 05m
Length of Day
13h 09m
Last Quarter, 38% of the Moon is Illuminated
Aug 29
Last Quarter
Sep 5
New
Sep 12
First Quarter
Sep 19
Full
Sep 26
Last Quarter

Hourly Weather History & Observations

Time (CDT) Temp. Heat Index Dew Point Humidity Pressure Visibility Wind Dir Wind Speed Gust Speed Precip Events Conditions
12:15 AM 79.7 °F - 66.2 °F 63% 30.02 in 10.0 mi West 3.5 mph - N/A   Clear
12:35 AM 78.8 °F - 66.2 °F 65% 30.02 in 10.0 mi West 4.6 mph - N/A   Clear
12:55 AM 79.5 °F - 66.0 °F 63% 30.02 in 10.0 mi West 3.5 mph - N/A   Clear
1:15 AM 79.2 °F - 65.8 °F 64% 30.02 in 10.0 mi West 3.5 mph - N/A   Clear
1:35 AM 78.1 °F - 65.8 °F 66% 30.02 in 10.0 mi Calm Calm - N/A   Clear
1:55 AM 78.4 °F - 65.5 °F 64% 30.02 in 10.0 mi West 3.5 mph - N/A   Clear
2:15 AM 77.4 °F - 65.7 °F 67% 30.02 in 10.0 mi West 3.5 mph - N/A   Clear
2:35 AM 77.5 °F - 65.5 °F 66% 30.02 in 10.0 mi Calm Calm - N/A   Clear
2:55 AM 78.1 °F - 65.3 °F 65% 30.03 in 10.0 mi Calm Calm - N/A   Clear
3:15 AM 78.3 °F - 64.9 °F 63% 30.03 in 10.0 mi Calm Calm - N/A   Clear
3:35 AM 73.2 °F - 66.2 °F 79% 30.03 in 10.0 mi Calm Calm - N/A   Clear
3:55 AM 72.5 °F - 66.2 °F 81% 30.03 in 10.0 mi Calm Calm - N/A   Clear
4:15 AM 72.7 °F - 66.2 °F 80% 30.03 in 10.0 mi Calm Calm - N/A   Clear
4:35 AM 71.6 °F - 66.2 °F 83% 30.03 in 10.0 mi Calm Calm - N/A   Clear
4:55 AM 71.1 °F - 66.0 °F 84% 30.03 in 10.0 mi Calm Calm - N/A   Clear
5:15 AM 70.9 °F - 66.2 °F 85% 30.04 in 10.0 mi Calm Calm - N/A   Clear
5:35 AM 70.7 °F - 66.0 °F 85% 30.03 in 10.0 mi Calm Calm - N/A   Clear
5:55 AM 69.6 °F - 65.7 °F 87% 30.04 in 10.0 mi Calm Calm - N/A   Clear
6:15 AM 69.4 °F - 66.0 °F 89% 30.04 in 5.0 mi Calm Calm - N/A   Clear
6:35 AM 70.7 °F - 66.0 °F 85% 30.05 in 10.0 mi WSW 3.5 mph - N/A   Clear
6:55 AM 69.4 °F - 65.7 °F 88% 30.05 in 10.0 mi Calm Calm - N/A   Clear
7:15 AM 73.0 °F - 66.2 °F 79% 30.05 in 10.0 mi West 3.5 mph - N/A   Clear
7:35 AM 74.8 °F - 66.2 °F 74% 30.05 in 10.0 mi West 4.6 mph - N/A   Clear
7:55 AM 76.5 °F - 66.7 °F 72% 30.06 in 10.0 mi West 4.6 mph - N/A   Clear
8:15 AM 78.4 °F - 67.6 °F 69% 30.05 in 10.0 mi West 4.6 mph - N/A   Clear
8:35 AM 79.7 °F - 68.0 °F 67% 30.05 in 10.0 mi WNW 3.5 mph - N/A   Clear
8:55 AM 80.6 °F 83.4 °F 68.4 °F 66% 30.06 in 10.0 mi NW 4.6 mph - N/A   Clear
9:15 AM 81.7 °F 84.7 °F 68.4 °F 64% 30.06 in 10.0 mi NW 3.5 mph - N/A   Clear
9:35 AM 83.1 °F 86.6 °F 69.1 °F 62% 30.07 in 10.0 mi WNW 4.6 mph - N/A   Clear
10:15 AM 83.3 °F 87.4 °F 70.2 °F 64% 30.07 in 10.0 mi Calm Calm - N/A   Clear
10:35 AM 85.8 °F 90.8 °F 70.5 °F 60% 30.07 in 10.0 mi NW 4.6 mph - N/A   Clear
10:55 AM 87.6 °F 92.3 °F 69.8 °F 55% 30.07 in 10.0 mi NW 6.9 mph - N/A   Clear
11:15 AM 88.2 °F 92.9 °F 69.8 °F 54% 30.06 in 10.0 mi NW 8.1 mph - N/A   Clear
11:35 AM 89.8 °F 95.1 °F 69.8 °F 52% 30.06 in 10.0 mi NW 5.8 mph - N/A   Clear
11:55 AM 90.3 °F 95.2 °F 69.6 °F 50% 30.06 in 10.0 mi NW 5.8 mph - N/A   Clear
12:15 PM 91.2 °F 97.0 °F 70.3 °F 50% 30.06 in 10.0 mi NNW 4.6 mph - N/A   Clear
12:35 PM 92.5 °F 96.9 °F 68.4 °F 45% 30.05 in 10.0 mi WNW 6.9 mph - N/A   Clear
12:55 PM 92.1 °F 96.7 °F 68.9 °F 46% 30.05 in 10.0 mi North 4.6 mph - N/A   Clear
1:15 PM 92.7 °F 97.2 °F 68.4 °F 45% 30.04 in 10.0 mi NE 5.8 mph - N/A   Clear
1:35 PM 92.7 °F 97.2 °F 68.2 °F 45% 30.04 in 10.0 mi NNE 6.9 mph - N/A   Clear
1:55 PM 93.2 °F 97.7 °F 68.5 °F 44% 30.03 in 10.0 mi NNE 4.6 mph - N/A   Clear
2:15 PM 93.9 °F 100.3 °F 70.2 °F 46% 30.03 in 10.0 mi North 4.6 mph - N/A   Clear
2:35 PM 94.3 °F 100.4 °F 70.2 °F 45% 30.02 in 10.0 mi East 4.6 mph - N/A   Clear
2:55 PM 94.1 °F 98.9 °F 68.2 °F 43% 30.02 in 10.0 mi Calm Calm - N/A   Clear
3:15 PM 93.4 °F 98.6 °F 69.4 °F 45% 30.01 in 10.0 mi ESE 4.6 mph - N/A   Clear
3:35 PM 93.9 °F 99.7 °F 69.8 °F 45% 30.01 in 10.0 mi ENE 3.5 mph - N/A   Clear
3:55 PM 93.9 °F 100.3 °F 70.5 °F 46% 30.00 in 10.0 mi NE 4.6 mph - N/A   Clear
4:15 PM 93.6 °F 100.1 °F 70.3 °F 47% 30.00 in 10.0 mi East 5.8 mph - N/A   Clear
4:35 PM 93.7 °F 99.9 °F 70.0 °F 46% 30.00 in 10.0 mi East 6.9 mph - N/A   Clear
4:55 PM 93.2 °F 99.4 °F 70.0 °F 47% 29.99 in 10.0 mi ENE 5.8 mph - N/A   Clear
5:15 PM 93.2 °F 101.1 °F 72.0 °F 50% 29.99 in 10.0 mi ENE 4.6 mph - N/A   Clear
5:35 PM 92.5 °F 100.7 °F 72.7 °F 52% 29.99 in 10.0 mi East 3.5 mph - N/A   Clear
5:55 PM 91.2 °F 99.7 °F 72.9 °F 55% 29.99 in 10.0 mi East 4.6 mph - N/A   Clear
6:15 PM 90.9 °F 100.0 °F 73.8 °F 57% 29.99 in 10.0 mi East 4.6 mph - N/A   Clear
6:35 PM 89.6 °F 98.2 °F 73.8 °F 59% 29.99 in 10.0 mi East 3.5 mph - N/A   Clear
6:55 PM 87.3 °F 96.3 °F 74.7 °F 66% 29.99 in 10.0 mi East 3.5 mph - N/A   Clear
7:15 PM 86.4 °F 95.5 °F 75.2 °F 69% 29.99 in 10.0 mi East 4.6 mph - N/A   Clear
7:35 PM 85.3 °F 95.0 °F 76.1 °F 74% 29.99 in 10.0 mi East 4.6 mph - N/A   Clear
7:55 PM 84.0 °F 92.9 °F 76.1 °F 77% 29.99 in 10.0 mi ENE 4.6 mph - N/A   Clear
8:15 PM 83.7 °F 92.4 °F 76.1 °F 78% 30.00 in 10.0 mi East 4.6 mph - N/A   Scattered Clouds
8:55 PM 82.4 °F 89.8 °F 75.6 °F 80% 30.00 in 7.0 mi East 3.5 mph - N/A   Clear
9:15 PM 81.9 °F 88.7 °F 75.4 °F 81% 30.01 in 7.0 mi East 4.6 mph - N/A   Clear
9:35 PM 81.1 °F 87.4 °F 75.4 °F 83% 30.00 in 7.0 mi ENE 3.5 mph - N/A   Clear
9:55 PM 80.2 °F 85.5 °F 75.2 °F 85% 30.00 in 7.0 mi East 3.5 mph - N/A   Clear
10:15 PM 79.2 °F - 75.2 °F 88% 30.00 in 5.0 mi East 4.6 mph - N/A   Clear
10:35 PM 77.7 °F - 74.1 °F 89% 29.99 in 5.0 mi Calm Calm - N/A   Clear
10:55 PM 77.9 °F - 74.3 °F 89% 29.99 in 5.0 mi Calm Calm - N/A   Clear
11:15 PM 77.9 °F - 74.5 °F 89% 29.99 in 5.0 mi Calm Calm - N/A   Clear
11:35 PM 77.7 °F - 74.5 °F 90% 29.99 in 5.0 mi ESE 3.5 mph - N/A   Clear
11:55 PM 76.6 °F - 74.1 °F 92% 29.99 in 3.0 mi SSE 3.5 mph - N/A   Clear